• En España
  • Lista de países
  • Para 7 días
  • Temperatura del agua
  • Mapa Satelital
  • El tiempo en el mapa
  • Informadores
  • user-avatar
    Iniciar sesión

    Tiempo cada hora Vialonga

    Hoy, 21 Noviembre, Martes

    Tiempo Temperatura Precipitaciones Viento Presión Humedad
    00:00 +12°C° 0 mm 2 mps 754 mmHg 54%
    01:00 +12°C° 0 mm 2 mps 753 mmHg 55%
    02:00 +10°C° 0 mm 2 mps 753 mmHg 56%
    03:00 +10°C° 0 mm 2 mps 753 mmHg 57%
    04:00 +10°C° 0 mm 3 mps 753 mmHg 58%
    05:00 +10°C° 0 mm 3 mps 753 mmHg 59%
    06:00 +11°C° 0 mm 3 mps 753 mmHg 56%
    07:00 +11°C° 0 mm 3 mps 753 mmHg 53%
    08:00 +12°C° 0 mm 3 mps 753 mmHg 50%
    09:00 +16°C° 0 mm 3 mps 753 mmHg 46%
    10:00 +18°C° 0 mm 3 mps 753 mmHg 42%
    11:00 +20°C° 0 mm 4 mps 753 mmHg 38%
    12:00 +21°C° 0 mm 4 mps 752 mmHg 38%
    13:00 +21°C° 0 mm 4 mps 752 mmHg 39%
    14:00 +22°C° 0 mm 4 mps 752 mmHg 39%
    15:00 +20°C° 0 mm 4 mps 751 mmHg 49%
    16:00 +18°C° 0 mm 4 mps 751 mmHg 59%
    17:00 +16°C° 0 mm 3 mps 751 mmHg 68%
    18:00 +14°C° 0 mm 3 mps 751 mmHg 73%
    19:00 +14°C° 0 mm 3 mps 751 mmHg 77%
    20:00 +13°C° 0 mm 3 mps 751 mmHg 82%
    21:00 +13°C° 0 mm 3 mps 751 mmHg 82%
    22:00 +13°C° 0 mm 4 mps 750 mmHg 82%
    23:00 +12°C° 0 mm 4 mps 750 mmHg 82%

    Mañana, 22 Noviembre, Miércoles

    Tiempo Temperatura Precipitaciones Viento Presión Humedad
    00:00 +12°C° 0 mm 4 mps 750 mmHg 80%
    01:00 +12°C° 0 mm 4 mps 750 mmHg 78%
    02:00 +11°C° 0 mm 4 mps 749 mmHg 76%
    03:00 +11°C° 0 mm 4 mps 749 mmHg 74%
    04:00 +10°C° 0 mm 5 mps 749 mmHg 72%
    05:00 +10°C° 0 mm 5 mps 748 mmHg 70%
    06:00 +12°C° 0 mm 5 mps 748 mmHg 68%
    07:00 +13°C° 0 mm 6 mps 748 mmHg 66%
    08:00 +14°C° 0 mm 6 mps 748 mmHg 63%
    09:00 +17°C° 0 mm 7 mps 748 mmHg 58%
    10:00 +20°C° 0 mm 8 mps 748 mmHg 52%
    11:00 +22°C° 0 mm 8 mps 748 mmHg 47%
    12:00 +22°C° 0,1 mm 8 mps 748 mmHg 48%
    13:00 +22°C° 0,1 mm 8 mps 747 mmHg 49%
    14:00 +22°C° 0,1 mm 7 mps 747 mmHg 49%
    15:00 +21°C° 0,2 mm 7 mps 747 mmHg 56%
    16:00 +19°C° 0,2 mm 6 mps 747 mmHg 63%
    17:00 +17°C° 0,2 mm 5 mps 747 mmHg 70%
    18:00 +17°C° 0,1 mm 5 mps 747 mmHg 72%
    19:00 +17°C° 0,1 mm 6 mps 747 mmHg 74%
    20:00 +17°C° 0,1 mm 6 mps 747 mmHg 77%
    21:00 +17°C° 0,2 mm 6 mps 747 mmHg 78%
    22:00 +17°C° 0,2 mm 6 mps 747 mmHg 79%
    23:00 +17°C° 0,2 mm 6 mps 748 mmHg 80%

    Pasado mañana, 23 Noviembre, Jueves

    Tiempo Temperatura Precipitaciones Viento Presión Humedad
    00:00 +17°C° 0,2 mm 5 mps 748 mmHg 82%
    01:00 +16°C° 0,2 mm 5 mps 748 mmHg 83%
    02:00 +16°C° 0,2 mm 5 mps 748 mmHg 85%
    03:00 +16°C° 0,1 mm 5 mps 748 mmHg 84%
    04:00 +16°C° 0,1 mm 5 mps 748 mmHg 83%
    05:00 +17°C° 0,1 mm 5 mps 748 mmHg 82%
    06:00 +17°C° 0 mm 5 mps 748 mmHg 77%
    07:00 +17°C° 0 mm 6 mps 748 mmHg 73%
    08:00 +19°C° 0 mm 6 mps 749 mmHg 68%
    09:00 +20°C° 0 mm 7 mps 749 mmHg 57%
    10:00 +22°C° 0 mm 8 mps 749 mmHg 46%
    11:00 +23°C° 0 mm 9 mps 749 mmHg 35%
    12:00 +23°C° 0 mm 9 mps 749 mmHg 34%
    13:00 +23°C° 0 mm 9 mps 748 mmHg 34%
    14:00 +23°C° 0 mm 9 mps 748 mmHg 33%
    15:00 +22°C° 0 mm 8 mps 748 mmHg 37%
    16:00 +21°C° 0 mm 8 mps 748 mmHg 41%
    17:00 +20°C° 0 mm 7 mps 748 mmHg 45%
    18:00 +18°C° 0 mm 8 mps 748 mmHg 47%
    19:00 +18°C° 0 mm 8 mps 748 mmHg 49%
    20:00 +17°C° 0 mm 8 mps 748 mmHg 51%
    21:00 +18°C° 0 mm 8 mps 748 mmHg 50%
    22:00 +18°C° 0 mm 9 mps 748 mmHg 48%
    23:00 +19°C° 0 mm 9 mps 748 mmHg 47%

    24 Noviembre, Viernes

    Tiempo Temperatura Precipitaciones Viento Presión Humedad
    00:00 +18°C° 0,4 mm 8 mps 748 mmHg 53%
    01:00 +18°C° 0,4 mm 8 mps 748 mmHg 59%
    02:00 +18°C° 0,4 mm 7 mps 748 mmHg 64%
    03:00 +17°C° 0,7 mm 7 mps 748 mmHg 67%
    04:00 +17°C° 0,7 mm 7 mps 748 mmHg 69%
    05:00 +17°C° 0,7 mm 7 mps 748 mmHg 72%
    06:00 +17°C° 0,7 mm 7 mps 748 mmHg 72%
    07:00 +17°C° 0,7 mm 7 mps 748 mmHg 72%
    08:00 +18°C° 0,7 mm 7 mps 748 mmHg 72%
    09:00 +18°C° 1,2 mm 7 mps 748 mmHg 73%
    10:00 +19°C° 1,2 mm 6 mps 748 mmHg 73%
    11:00 +19°C° 1,2 mm 6 mps 748 mmHg 74%
    12:00 +20°C° 0,5 mm 7 mps 748 mmHg 70%
    13:00 +21°C° 0,5 mm 7 mps 747 mmHg 67%
    14:00 +21°C° 0,5 mm 8 mps 747 mmHg 63%
    15:00 +21°C° 0,8 mm 8 mps 747 mmHg 64%
    16:00 +20°C° 0,8 mm 7 mps 747 mmHg 66%
    17:00 +20°C° 0,8 mm 7 mps 747 mmHg 67%
    18:00 +20°C° 0,4 mm 6 mps 748 mmHg 66%
    19:00 +19°C° 0,4 mm 6 mps 748 mmHg 65%
    20:00 +19°C° 0,4 mm 5 mps 748 mmHg 64%
    21:00 +19°C° 0,7 mm 5 mps 748 mmHg 67%
    22:00 +19°C° 0,7 mm 4 mps 748 mmHg 70%
    23:00 +19°C° 0,7 mm 4 mps 748 mmHg 73%

    25 Noviembre, Sábado

    Tiempo Temperatura Precipitaciones Viento Presión Humedad
    00:00 +18°C° 0,8 mm 4 mps 749 mmHg 76%
    01:00 +18°C° 0,8 mm 3 mps 749 mmHg 80%
    02:00 +17°C° 0,8 mm 3 mps 749 mmHg 84%
    03:00 +17°C° 1 mm 3 mps 749 mmHg 86%
    04:00 +17°C° 1 mm 3 mps 749 mmHg 89%
    05:00 +17°C° 1 mm 4 mps 749 mmHg 91%
    06:00 +17°C° 1 mm 4 mps 750 mmHg 91%
    07:00 +17°C° 1 mm 4 mps 750 mmHg 91%
    08:00 +17°C° 1 mm 3 mps 751 mmHg 92%
    09:00 +17°C° 1,1 mm 4 mps 751 mmHg 90%
    10:00 +17°C° 1,1 mm 4 mps 751 mmHg 88%
    11:00 +18°C° 1,1 mm 4 mps 751 mmHg 87%
    12:00 +18°C° 0,4 mm 3 mps 751 mmHg 85%
    13:00 +18°C° 0,4 mm 3 mps 751 mmHg 82%
    14:00 +18°C° 0,4 mm 2 mps 751 mmHg 80%
    15:00 +18°C° 0,1 mm 2 mps 751 mmHg 82%
    16:00 +17°C° 0,1 mm 2 mps 752 mmHg 83%
    17:00 +17°C° 0,1 mm 2 mps 752 mmHg 85%
    18:00 +16°C° 0,3 mm 3 mps 753 mmHg 85%
    19:00 +15°C° 0,3 mm 4 mps 753 mmHg 85%
    20:00 +15°C° 0,3 mm 5 mps 753 mmHg 85%
    21:00 +15°C° 0,4 mm 5 mps 753 mmHg 84%
    22:00 +15°C° 0,4 mm 5 mps 753 mmHg 84%
    23:00 +14°C° 0,4 mm 4 mps 753 mmHg 83%

    26 Noviembre, Domingo

    Tiempo Temperatura Precipitaciones Viento Presión Humedad
    00:00 +14°C° 0,3 mm 4 mps 753 mmHg 83%
    01:00 +14°C° 0,3 mm 5 mps 753 mmHg 83%
    02:00 +14°C° 0,3 mm 5 mps 753 mmHg 82%
    03:00 +14°C° 0,1 mm 5 mps 753 mmHg 82%
    04:00 +14°C° 0,1 mm 5 mps 753 mmHg 83%
    05:00 +13°C° 0,1 mm 5 mps 753 mmHg 83%
    06:00 +14°C° 0,1 mm 5 mps 754 mmHg 83%
    07:00 +14°C° 0,1 mm 5 mps 754 mmHg 82%
    08:00 +14°C° 0,1 mm 5 mps 754 mmHg 82%
    09:00 +15°C° 0 mm 5 mps 754 mmHg 77%
    10:00 +17°C° 0 mm 5 mps 754 mmHg 71%
    11:00 +19°C° 0 mm 6 mps 754 mmHg 66%
    12:00 +20°C° 0 mm 5 mps 754 mmHg 63%
    13:00 +20°C° 0 mm 5 mps 753 mmHg 60%
    14:00 +21°C° 0 mm 5 mps 753 mmHg 56%
    15:00 +20°C° 0 mm 5 mps 753 mmHg 60%
    16:00 +19°C° 0 mm 5 mps 753 mmHg 63%
    17:00 +17°C° 0 mm 5 mps 753 mmHg 66%
    18:00 +17°C° 0 mm 5 mps 753 mmHg 67%
    19:00 +16°C° 0 mm 5 mps 753 mmHg 69%
    20:00 +16°C° 0 mm 5 mps 753 mmHg 70%
    21:00 +15°C° 0 mm 5 mps 752 mmHg 70%
    22:00 +15°C° 0 mm 5 mps 752 mmHg 70%
    23:00 +15°C° 0 mm 5 mps 752 mmHg 70%
    Mostrar más